Погода в Максатихе

Погода в Максатихе : погода сейчас, прогноз погоды и архив. Всё, что Вы хотите узнать о погоде в Максатихе!

Поиск расширенной информации на нашем сайте:

Другие новости

Новости СМИ2

Главная страница сайта

Новости сайта

03.07.2017

Напоминаем, что на нашем специализированном сайте Метеоцентр.Азия вы можете получить высокодетализированные автоматические прогнозы погоды по пунктам России, СНГ и мира в авиационном формате (включающие направление и скорость ветра, видимость, явления погоды, количество и форму облачности, нижнюю и верхнюю границу облачности).

Рекомендуем: Стирка пуховика и подушек в стиральной машине moyatehnika.ru.

Погода в Максатихе - сегодня

Время (UTC), дата Ветер
(°,м/с) 
Видим.   Явления Облачность Т
(°С)
Тd
(°С)
f(%) Тe
(°С)
Pmin
(гПа)
dP
(гПа)
Po
(мм)
O2
(г/м3)
Тmin Tmax R s Состояние
почвы
03 11.12.17 130 (ЮВ) 4000 м  слаб. ливневой дождь  9/9 600 м кучево-дожд. 
[Cb cap]
+1.4 +0.9 96 -1  1002.9  -1.2  739  296  +0.2       
06 11.12.17 130 (ЮВ) 4{10}  4000 м  слаб. дождь{ливн. осадки}  10/10 300 м 
[Frnb|Ns]
+1.7 +1.4 98 1003.4  0.6  739  296  +0.2    14  равномерный
мокрый или
старый снег
100% 
09 11.12.17 130 (ЮВ) 4000 м  слаб. дождь  10/10 100 м 
[Frnb|Ns]
+1.6 +1.1 96 -1  1004.1  0.7  740  296           
12 11.12.17 120 (ЮВ) 4000 м  слаб. морось{дождь}  10/10 200 м 
[St]
+1.1 +0.6 96 1003.8  -0.4  740  297           
15 11.12.17 120 (ЮВ) 4000 м  слаб. снег{дождь}  10/10 200 м 
[Frnb|Ns]
+0.4 +0.2 99 1004.4  0.6  740  298         
18 11.12.17 130 (ЮВ) 2000 м  слаб. снег{дождь}  10/10 100 м 
[Frnb|Ns]
+0.5 +0.3 99 1006  1.5  741  298    +1.8     
21 11.12.17 130 (ЮВ) 2000 м  дымка{снег}  10/10 200 м 
[St]
+0.7 +0.4 98 1008  743  298           
00 12.12.17 130 (ЮВ) 2000 м  дымка{снег}  10/10 200 м 
[St]
+0.5 +0.3 99 -1  1009.1  743  299           
03 12.12.17 130 (ЮВ) 4000 м  слаб. дождь со снегом{морось}  10/10 100 м 
[Frnb|Ns]
+0.1 -0.1 99 +1  1010.9  1.8  745  300  +0.1       
06 12.12.17 180 (Ю) 4000 м  в посл. час снег{морось}  9/9 300 м 
[Sc]
+0.1 -0.7 94 -2  1012.2  1.2  746  300  -0.1    12  равномерный
мокрый или
старый снег
100% 
09 12.12.17 150 (ЮВ) 4000 м  дымка  9/9 600 м 
[Sc]
-0.6 -1.6 93 -2  1012  -0.2  746  301           
12 12.12.17 140 (ЮВ) 4000 м  дымка  9/9 600 м 
[Sc]
-1.2 -2.2 93 -4  1011  -1.1  745  302           
15 12.12.17 140 (ЮВ) 4000 м  дымка  9/9 600 м 
[Sc]
-1.1 -2.1 93 -4  1009.6  -1.3  744  301      0.0     
18 12.12.17 150 (ЮВ) 5{11}  4000 м  слаб. ливневой дождь  9/9 600 м кучево-дожд. 
[Cb cap]
+0.1 -0.6 95 -3  1006.5  -3  742  299    +0.1     
21 12.12.17 170 (Ю) 5-13{13}  4000 м  в посл. час ливневой дождь  9/9 600 м 
[Sc diur, vesp]
+0.9 +0.4 96 -2  1004.5  -1.9  740  297           
00 13.12.17 190 (Ю) 4{13}  4000 м  дымка{ливн. осадки}  9/9 600 м 
[Sc diur, vesp]
+1.3 +1 98 -1  1004.2  -0.2  740  297           
03 13.12.17 190 (Ю) 4000 м  дымка  9/9 600 м 
[Sc]
+1.7 +1.4 98 -1  1003.1  -1  739  296  -1.1       
06 13.12.17 200 (Ю) 4000 м  дымка  9/9 300 м 
[St]
+2.1 +1.7 97 1003.7  0.6  740  295  -1.1    10  равномерный
мокрый или
старый снег
100% 
09 13.12.17 220 (ЮЗ) 10 км    8/5 300 м средняя, верхняя 
[St|Ac trans|Ci fib]
+2.7 +1.3 90 +1  1004.6  0.9  740  295           
12 13.12.17 220 (ЮЗ) 10 км    9/9 300 м 
[St]
+2.3 -0.2 84 +1  1005.9  1.2  741  296           
15 13.12.17 220 (ЮЗ) 10 км    9/9 600 м 
[Sc]
+1.6 -0.3 87 1008.4  2.4  743  298           
18 13.12.17 230 (ЮЗ) 4000 м  в посл. час ливневой снег  1/1 300 м 
[St]
+0 -0.3 98 -1  1010.6  745  300    +2.7  0.6     
21 13.12.17 220 (ЮЗ) 4000 м  дымка  ясно 
-3.1 -3.4 98 -3  1012.2  1.4  746  304           
00 14.12.17 190 (Ю) 4000 м  дымка  3/0 средняя 
[Ac trans]
-3.4 -3.5 99 -5  1013  0.7  746  305           
03 14.12.17 200 (Ю) 4000 м  дымка [диам. изморози 4 мм]  ясно 
-6 -6.4 97 -6  1013.2  0.1  746  308  -6.1    0.6     
Время (UTC), дата Ветер
(°,м/с) 
Видим.   Явления Облачность Т
(°С)
Тd
(°С)
f(%) Тe
(°С)
Pmin
(гПа)
dP
(гПа)
Po
(мм)
O2
(г/м3)
Тmin Tmax R s Состояние
почвы

Для получения пояснительной информации подведите курсор к названию столбца.

ПОГОДА в Максатихе - архив

Всё, что Вы хотите узнать о погоде в Максатихе - удобно и подробно!

Выберите нужную дату (начиная с 1 января 2015* года) и нажмите кнопку "Найти".
Будут отображены архивные сводки погоды по пункту Максатиха, начиная с указанной даты.


Отображать данные в формате CSV (для использования в таблицах Excel)


Внимание! Наш архив погоды предназначен исключительно для личного некоммерческого использования в познавательных целях. Если Вам необходимы официальные справки о состоянии погоды (для производственных, юридических, коммерческих и т.п. целей), обращайтесь в органы Росгидромета.

*Примечание: данная дата относится к архиву по метеостанциям СССР (Россия, СНГ, Балтия).
Архив по метеостанциям Зарубежной Европы и Азии (кроме Китая) хранится 10 дней, по другим регионам земного шара (Китай, Африка, Америка, Австралия, Океания) - 1 день.

Максатиха - район местоположения метеостанции


Название, широта, долгота, высота метеостанции:
Максатиха 57.8°ш. 35.9°д. 140 м над ур. моря [Российская Федерация]

Дополнительная информация

В oтличие oт бoльшинства пoгoдных сайтoв мы публикуем пoдрoбную метеoинфoрмацию в детальнoм прoфессиoнальнoм фoрмате.

Характеристики температуры и влажнoсти вoздуха измеряются на высoте 2 м в тени вдали oт зданий и деревьев.
Скoрoсть ветра измеряется на высoте 10 м (на урoвне рoста челoвека скoрoсть ветра ниже в 1.5-2 раза). Если метеoстанция нахoдится в гoрoде или в лесу, тo скoрoсть ветра занижена на 2-4 м/с пo сравнению с oткрытым местoм. Скoрoсть ветра над акватoриями крупных рек и oзёр, а также на вершинах хoлмoв на 2-5 м/с выше, чем в oбычных услoвиях.
Атмoсфернoе давление в разных тoчках местнoсти мoжет значительнo oтличаться oт давления на метеoстанции, в зависимoсти oт услoвий рельефа (при пoдъёме на 10 м давление пoнижается примернo на 1 мм рт.ст.).